Location: *
(44.3669°N, 0.6450°W)
Time: 07:33:56
(UTC+00:00)

Daily predictions for brighter satellites

Satellite Brightness Start Highest point End
(mag) Time Altitude Azimuth Time Altitude Azimuth Time Altitude Azimuth
Unknown 4.3 17:39:57 10° WSW 17:43:58 50° NNW 17:48:02 10° NE
Unknown 4.3 17:43:07 10° WSW 17:47:09 49° NNW 17:51:11 10° NE
Meteor 2-12 Rocket 4.5 17:41:27 10° N 17:47:38 74° E 17:53:47 10° SSE
Envisat 3.1 17:42:42 10° SSE 17:47:41 59° ENE 17:52:41 10° N
Meteor 1-16 Rocket 4.5 17:43:00 10° SSE 17:48:16 44° E 17:53:24 10° NNE
BREEZE-M DEB (TANK) 4.2 17:42:55 10° SSW 17:48:32 30° SSE 17:51:08 10° E
Unknown 4.4 17:46:37 10° W 17:50:38 46° NNW 17:54:38 10° NE
Unknown 4.5 17:48:19 10° W 17:52:19 45° NNW 17:56:19 10° NE
Cosmos 1758 Rocket 3.7 17:48:19 10° N 17:52:48 84° W 17:57:16 10° S
Cosmos 1908 4.4 17:50:19 10° SE 17:53:21 22° E 17:56:23 10° NE
Lacrosse 5 rocket 1.4 17:54:22 10° NW 17:58:07 74° SW 18:02:04 10° SE
Cosmos 1356 4.1 17:55:28 10° SSE 17:58:34 32° E 18:01:40 10° NNE
Cosmos 2278 Rocket 3.1 17:54:31 10° SSE 17:59:08 26° ESE 18:03:46 10° NE
ASTEX 1 3.5 17:54:34 10° NNE 17:59:26 54° E 18:04:18 10° S
Cosmos 1939 Rocket 4.2 17:57:20 10° ESE 18:00:19 21° ENE 18:03:20 10° NNE
Cosmos 1470 4.3 17:59:05 10° SSW 18:02:52 40° WNW 18:06:38 10° N
Cosmos 1844 3.8 17:57:52 10° SSW 18:03:35 89° ESE 18:09:24 10° NNE
ATLAS 5 CENTAUR R/B 2.8 18:00:16 10° WSW 18:04:20 41° NW 18:08:53 10° NNE
SKYMED 2 3.5 18:04:58 10° NNE 18:09:19 71° ESE 18:13:38 10° S
Cosmos 1328 4.0 18:06:10 10° N 18:10:03 48° ENE 18:13:52 10° SSE
YAOGAN 1 2.6 18:08:07 10° SSE 18:12:19 55° ENE 18:16:34 10° N
Cosmos 482 Debris 4.2 18:07:49 10° WNW 18:13:13 83° NNE 18:15:52 15° ESE
Cosmos 292 Rocket 3.7 18:14:10 10° S 18:18:49 61° ESE 18:23:31 10° NNE
CSL-04 Rocket 3.7 18:17:02 10° SSE 18:22:33 74° ENE 18:28:03 10° N
CZ-4 R/B 1.5 18:18:53 10° SSE 18:23:02 87° WSW 18:27:17 10° NNW
USA 238 DEB 4.4 18:17:51 10° S 18:23:32 31° ESE 18:28:53 12° NE
USA 238 4.4 18:17:59 10° S 18:23:39 30° ESE 18:28:55 12° ENE
Cosmos 1726 Rocket 4.1 18:20:16 10° SSW 18:24:38 63° W 18:28:59 10° N
Shenzhou-11 Module 1.9 18:26:03 10° W 18:28:48 63° S 18:29:46 34° ESE
Cosmos 1726 2.0 18:26:19 10° S 18:29:58 88° W 18:33:39 10° N
Cosmos 2228 4.0 18:25:53 10° SSW 18:30:09 51° WNW 18:34:25 10° N
Lacrosse 5 2.9 18:25:50 10° NW 18:30:20 31° NNE 18:32:48 20° ENE
Ariane Rocket 3.3 18:25:34 10° SE 18:30:20 43° ENE 18:35:09 10° N
NOAA 11 4.3 18:25:12 10° SE 18:30:27 52° ENE 18:35:43 10° N
Cosmos 1242 Rocket 2.8 18:30:10 10° NNW 18:33:51 72° W 18:37:30 10° S
CZ-2D R/B 3.2 18:34:20 10° SSE 18:38:06 57° ENE 18:41:55 10° N
Cosmos 2058 Rocket 3.4 18:35:38 10° SSW 18:39:57 66° W 18:44:19 10° N
Cosmos 921 Rocket 4.0 18:36:05 10° SW 18:40:27 51° WNW 18:44:51 10° N
Cosmos 1833 Rocket 2.9 18:35:26 10° NNW 18:40:53 48° ENE 18:44:18 22° ESE
Cosmos 1339 Rocket 4.3 18:39:46 10° S 18:45:49 77° E 18:51:57 10° N
SL-4 R/B 4.0 18:44:45 10° W 18:47:45 22° SW 18:50:35 10° S
NOSS 3-2 (A) 3.9 18:44:10 10° S 18:49:16 35° ESE 18:51:20 27° ENE
HJ-1C 3.8 18:51:32 44° NE 18:51:32 44° NE 18:54:26 10° N
Cosmos 1777 Rocket 3.9 18:46:23 10° NNW 18:51:39 85° ENE 18:56:50 10° SSE
Cosmos 1459 Rocket 4.4 18:51:08 10° N 18:56:54 39° ENE 18:58:58 31° ESE
USA 116 4.3 18:53:54 10° N 18:56:55 45° WNW 19:00:07 10° SSW
COSMO-SKYMED 1 4.2 18:53:18 10° N 18:57:17 36° WNW 19:01:16 10° SW
Cosmos 1703 4.1 18:53:39 10° NNW 18:57:29 50° W 19:01:16 10° S
Cosmos 2058 4.2 18:55:49 10° N 18:58:09 25° NE 18:58:09 25° NE
Cosmos 1605 Rocket 4.0 18:53:34 10° N 18:59:48 80° W 19:05:54 10° S
Gbstr 26 Del rocket 4.2 18:54:33 10° WNW 19:00:44 65° NNE 19:04:05 33° E
Cosmos 2082 Rocket 2.4 18:57:26 10° NNW 19:03:00 50° ENE 19:04:38 39° ESE
Abrixas rocket 2.5 19:00:23 10° SW 19:02:52 51° SSW 19:02:52 51° SSW
SJ 16-02 3.7 19:02:04 10° NNE 19:02:24 11° NNE 19:02:24 11° NNE
H-2A R/B 2.9 19:06:52 31° NE 19:06:52 31° NE 19:11:05 10° N
Cosmos 1727 Rocket 3.8 19:01:06 10° S 19:07:16 77° E 19:13:27 10° N
COSMOS 2406 3.9 19:01:56 10° NNW 19:07:34 54° WSW 19:13:06 10° S
Unknown 3.6 19:08:08 10° NW 19:10:36 51° NW 19:10:36 51° NW
NOSS 3-2 (C) 4.3 19:07:19 10° S 19:10:26 27° SSE 19:10:26 27° SSE
Cosmos 1802 Rocket 4.3 19:10:47 10° N 19:16:58 46° ENE 19:17:48 44° E
Cosmos 2173 Rocket 4.0 19:14:08 10° N 19:20:19 58° ENE 19:22:02 44° SE
SJ-11-01 4.1 19:22:27 69° E 19:22:31 69° ENE 19:27:12 10° N
MOS 1 4.2 19:27:18 29° SSE 19:30:19 88° WSW 19:36:01 10° NNW
In-Cosmos 22 Rocket 4.2 19:25:36 10° N 19:30:28 57° NE 19:30:28 57° NE
Cosmos 1898 Rocket 4.4 19:28:56 10° N 19:32:33 35° NNE 19:32:33 35° NNE
Cosmos 1939 Rocket 4.5 19:31:24 10° SSW 19:35:01 34° W 19:38:43 10° NNW
Cosmos 1461 3.3 19:31:05 10° NW 19:34:29 59° NW 19:34:29 59° NW
CZ-2C R/B 4.3 19:37:01 32° NNE 19:37:01 32° NNE 19:40:39 10° N
ADEOS Rocket 3.4 19:29:23 10° NNE 19:37:01 59° E 19:44:05 10° S
Cosmos 967 Rocket 4.4 19:32:43 10° NNW 19:39:14 83° ENE 19:40:25 62° SE
Cosmos 1000 Rocket 4.3 19:33:13 10° S 19:39:21 74° E 19:45:35 10° NNE
Cosmos 1812 Rocket 4.3 19:35:33 10° SSW 19:39:51 52° WNW 19:44:14 10° N
Cosmos 2100 Rocket 3.8 19:35:00 10° N 19:41:14 88° E 19:43:19 45° S
Cosmos 2278 Rocket 3.0 19:37:24 10° SW 19:42:53 49° WNW 19:48:25 10° NNE
ATLAS 3B R/B 4.2 19:43:44 10° S 19:45:35 19° S 19:45:35 19° S
ATLAS 5 CENTAUR R/B 4.5 19:48:31 10° NW 19:50:27 12° NNW 19:52:30 10° N
Cosmos 1076 Rocket 4.4 19:47:22 10° NNW 19:51:23 48° W 19:51:23 48° W
Cosmos 2016 Rocket 4.0 19:57:46 10° N 20:03:18 70° N 20:03:18 70° N
Lacrosse 5 3.0 20:08:40 10° NW 20:12:00 41° WNW 20:12:00 41° WNW
USA 238 DEB 4.0 20:07:26 10° SW 20:14:03 61° NW 20:16:24 41° NNE
USA 238 4.0 20:07:31 10° SW 20:14:09 61° NW 20:16:26 41° NNE
ARGOS 4.1 20:19:56 43° NNW 20:19:56 43° NNW 20:23:36 10° NNW
Cosmos 2061 Rocket 4.2 20:13:45 10° NNW 20:19:19 65° NW 20:19:19 65° NW
Cosmos 1833 Rocket 4.4 20:19:53 10° NW 20:24:30 27° WSW 20:26:03 24° SW
NOSS 3-2 (A) 4.4 20:34:13 10° WSW 20:38:49 44° WNW 20:38:49 44° WNW
SJ 16-02 4.3 20:39:13 10° NNW 20:39:24 11° NNW 20:39:24 11° NNW
H-2A R/B 3.9 20:47:31 29° WNW 20:47:31 29° WNW 20:50:39 10° NNW
Cosmos 2082 Rocket 4.0 20:42:08 10° NW 20:46:31 26° W 20:46:31 26° W
